星链-1503 (STARLINK-1503 )

导读

STARLINK-1503是SpaceX星链星座的卫星之一,于2020年6月13日由美国发射升空,属于SpaceX打造的全球卫星互联网项目组成部分。星链旨在通过近地轨道卫星群提供高速互联网服务,覆盖全球偏远与网络不发达地区。该卫星入轨后承担相应的通信信号转发任务,助力星链网络的部署与运行。

基本信息
目录编号:
45745
目录名称:
STARLINK-1503
国际标识:
2020-038R
轨道中心:
EARTH
卫星名称:
星链-1503
卫星全名:
星链-1503 (STARLINK-1503 )
卫星状态:
已陨落 最后检测时间 2025-05-15
发射日期:
2020-06-13 UTC
国别 :
美国 (US)
星等 :
--
该卫星已列入 空间交会检测服务 Space Conjunction Data Service (SCDS) ,当前飞行风险评估等级: 无高风险
轨道信息
数据来源 国际轨道数据
星历时间: 2025-05-15T15:33:12+0800
轨道信息已过期486天
半长轴: 6524.746km
偏心率: 0.0007926
轨道倾角: 53.023°
近地点辐角 261.479°
升交点赤经 82.134°
平近点角 237.193°
近地点: 141.439km
远地点: 151.783km
周期: 87.419分钟
每日圈数: 16.472419
详细信息
固有亮度:
5
最大亮度:
2.5
卫星平台:
Starlink V1.0
覆盖范围:
全球
运营商:
太空探索技术公司
运营商所在国:
美国
制造商(研发单位):
太空探索技术公司
制造商所在国:
美国
使用方式:
暂无
卫星简介
星链(Starlink)计划是由太空探索技术公司(SpaceX)提出的一个巨型低轨卫星互联网星座项目,计划在2019年至2024年间在太空搭建由约1.2万颗卫星组成的“星链”网络,其中1584颗将部署在地球上空550千米处的近地轨道,并从2020年开始工作。该卫星仍在工作。
与全量物体交会距离演化趋势
与全量物体交会风险概率演化趋势